STARLINK-1206 (45204 NORAD) Tracking and Keplerian Element Data

This shows tracking and keplerian element data for the satellite.

Feedback or suggestion? Click here.




ElementValue
Catalog45204
NameSTARLINK-1206
Epoch Orbit175
Epoch Day188.91667824
Epoch Year2020
RAAN327.1634
Inclination53.0021
Eccentricity0.0001151
Argument of Perigee90.0663
Mean Anonmoly257.3045
Mean Motion15.05585004
Decay Rate6.339E-05
L11 45204U 20012AC 20188.91667824 .00006339 00000-0 45378-3 0 9993
L22 45204 53.0021 327.1634 0001151 90.0663 257.3045 15.05585004 1758

Live tracking and technical data element details for STARLINK-1206 (NORAD 45204). STARLINK-1206 can be tracked NOW for your location showing map with azimuth and elevation plus other details from your city location.

Track the satellite on the map from your city or location and see movement details for azimuth, elevation, latitude, longitude, range, height, and movement on the map or in text.







IsCatalogInMostPopularTable: catalog: 45204, numindb: 25
Update: records affected: 1



GetName: 45204 STARLINK-1206

Hit Count: updated at: Wed, 08 Jul 2020 03:32:18 GMT